Home   Weather   United Kingdom   Grimsby   Past weeks
Flag for United Kingdom

Past Weather in Grimsby, England, United Kingdom — Yesterday and Last 2 Weeks

Currently: 45 °F. Passing clouds. (Weather station: Humberside, United Kingdom). See more current weather

Past Weather in Grimsby — Graph

°F

Grimsby Temperature Yesterday

Maximum temperature yesterday: 52 °F (at 11:50 am)
Minimum temperature yesterday: 46 °F (at 10:50 pm)
Average temperature yesterday: 49 °F

High & Low Weather Summary for the Past Weeks

 TemperatureHumidityPressure
High55 °F (Feb 3, 11:50 am)100% (Jan 21, 10:20 am)30.92 "Hg (Jan 21, 10:20 am)
Low27 °F (Jan 21, 7:20 pm)58% (Jan 31, 12:50 pm)30.01 "Hg (Jan 29, 7:20 pm)
Average43 °F85%30.39 "Hg
* Reported Jan 21 10:20 am — Feb 5 10:50 am, Grimsby. Weather by CustomWeather, © 2023

Note: Actual official high and low records may vary slightly from our data, if they occured in-between our weather recording intervals... More about our weather records

Grimsby Weather History for the Previous 24 Hours

Scroll right to see more
 ConditionsComfort  
Time TempWeatherWind HumidityBarometerVisibility
10:50 am
Sun, Feb 5
43 °FPassing clouds.5 mph71%30.89 "HgN/A
10:20 am43 °FSunny.6 mph71%30.89 "Hg10 mi
9:50 am39 °FSunny.6 mph81%30.89 "Hg10 mi
9:20 am39 °FSunny.7 mph81%30.89 "Hg10 mi
8:50 am37 °FSunny.8 mph81%30.92 "Hg10 mi
8:20 am36 °FSunny.7 mph87%30.89 "Hg10 mi
7:50 am37 °FChilly.6 mph81%30.89 "HgN/A
7:20 am37 °FChilly.8 mph81%30.86 "HgN/A
6:50 am37 °FChilly.8 mph81%30.86 "HgN/A
6:20 am37 °FClear.7 mph81%30.86 "Hg10 mi
5:50 am37 °FClear.7 mph81%30.86 "Hg10 mi
5:20 am39 °FChilly.8 mph81%30.83 "HgN/A
4:50 am37 °FChilly.9 mph87%30.83 "HgN/A
4:20 am39 °FChilly.9 mph81%30.80 "HgN/A
3:50 am39 °FChilly.14 mph81%30.80 "HgN/A
3:20 am39 °FChilly.10 mph81%30.77 "HgN/A
2:50 am39 °FChilly.13 mph81%30.77 "HgN/A
2:20 am41 °FQuite cool.12 mph81%30.74 "HgN/A
1:50 am41 °FQuite cool.12 mph81%30.72 "HgN/A
1:20 am41 °FQuite cool.10 mph81%30.72 "HgN/A
12:50 am43 °FQuite cool.10 mph76%30.69 "HgN/A
11:20 pm
Sat, Feb 4
46 °FCool.12 mph71%30.66 "HgN/A
10:50 pm46 °FCool.15 mph76%30.66 "HgN/A
10:20 pm48 °FPassing clouds.13 mph82%30.63 "HgN/A
9:50 pm48 °FMostly cloudy.18 mph87%30.63 "HgN/A
9:20 pm48 °FOvercast.10 mph87%30.63 "HgN/A
8:50 pm48 °FPassing clouds.10 mph87%30.60 "HgN/A
8:20 pm48 °FPassing clouds.10 mph87%30.60 "HgN/A
7:50 pm48 °FPassing clouds.13 mph87%30.60 "HgN/A
7:20 pm48 °FPassing clouds.14 mph87%30.60 "HgN/A
6:50 pm48 °FPassing clouds.13 mph87%30.60 "HgN/A
6:20 pm48 °FPassing clouds.15 mph87%30.60 "HgN/A
5:50 pm48 °FMostly cloudy.15 mph87%30.60 "HgN/A
5:20 pm48 °FPassing clouds.12 mph82%30.60 "HgN/A
4:50 pm50 °FPassing clouds.13 mph76%30.60 "HgN/A
4:20 pm50 °FPartly sunny.10 mph76%30.60 "HgN/A
3:50 pm50 °FMore clouds than sun.10 mph76%30.60 "HgN/A
3:20 pm50 °FMore clouds than sun.13 mph76%30.57 "HgN/A
2:50 pm52 °FMore clouds than sun.9 mph67%30.57 "HgN/A
2:20 pm52 °FBroken clouds.13 mph72%30.57 "HgN/A
1:50 pm52 °FBroken clouds.13 mph67%30.60 "HgN/A
1:20 pm52 °FPartly sunny.14 mph67%30.60 "HgN/A
12:50 pm52 °FPartly sunny.13 mph72%30.60 "HgN/A
12:20 pm52 °FPartly sunny.10 mph77%30.60 "HgN/A
Weather by CustomWeather, © 2023

See weather overview